Flag for Austria Past Weather in Bruck an der Leitha, Lower Austria, Austria — Yesterday and Last 2 Weeks

Now
78 °F

Scattered clouds.


Feels Like: 79 °F
Forecast: 68 / 80 °F
Wind: N/A

Location: Wien / Schwechat-Flughafen

Current Time: Jul 27, 2016 at 11:48:53 AM

Latest Report: Jul 27, 2016 at 11:00 AM


Visibility: 9 mi

Pressure: 30.01 "Hg

Humidity: 67%

Dew Point: 66 °F

Location of Bruck an der LeithaLocation

Past Weather in Bruck an der Leitha — Graph

°F

Bruck an der Leitha Temperature Yesterday

Maximum temperature yesterday: 85 °F (at 3:00 PM)
Minimum temperature yesterday: 71 °F (at 1:00 AM)
Average temperature yesterday: 77 °F

High & Low Weather Summary for the Past Weeks

 TemperatureHumidityPressure
High85 °F (Jul 26, 3:00 PM)97% (Jul 12, 11:00 PM)30.21 "Hg (Jul 12, 11:00 PM)
Low56 °F (Jul 14, 7:00 AM)44% (Jul 19, 4:00 PM)29.77 "Hg (Jul 14, 9:00 AM)
Average70 °F72%30.01 "Hg
* Reported Jul 12 10:00 AM — Jul 27 10:00 AM, Bruck an der Leitha, Weather by CustomWeather, © 2016

Note: Actual official high and low records may vary slightly from our data, if they occured in-between our weather recording intervals... More about our weather records

Advertising

Bruck an der Leitha Weather History for the Previous 24 Hours

Scroll right to see more
 ConditionsComfort  
Time TempWeatherWind HumidityBarometerVisibility
10:00 AM
Wed, Jul 27
76 °FScattered clouds.5 mph70%30.01 "Hg9 mi
9:00 AM74 °FScattered clouds.3 mph70%30.01 "Hg9 mi
8:00 AM72 °FScattered clouds.N/A78%30.02 "Hg12 mi
7:00 AM69 °FPassing clouds.N/A86%30.03 "Hg7 mi
6:00 AM67 °FPassing clouds.N/A87%30.02 "Hg11 mi
5:00 AM68 °FPassing clouds.3 mph82%30.01 "Hg12 mi
4:00 AM69 °FPassing clouds.3 mph79%30.01 "Hg14 mi
3:00 AM72 °FPassing clouds.5 mph71%30.00 "Hg17 mi
2:00 AM72 °FPassing clouds.5 mph71%30.01 "Hg19 mi
1:00 AM70 °FPassing clouds.3 mph78%30.02 "Hg16 mi
12:00 AM73 °FPassing clouds.N/A74%30.01 "Hg19 mi
11:00 PM
Tue, Jul 26
74 °FPassing clouds.5 mph72%30.00 "Hg15 mi
10:00 PM75 °FPassing clouds.6 mph68%30.00 "Hg16 mi
9:00 PM77 °FPassing clouds.7 mph64%30.00 "Hg19 mi
8:00 PM77 °FPartly sunny.6 mph66%29.99 "Hg19 mi
7:00 PM80 °FScattered clouds.6 mph59%29.97 "Hg16 mi
6:00 PM83 °FScattered clouds.6 mph53%29.96 "Hg12 mi
5:00 PM81 °FScattered clouds.6 mph52%29.96 "Hg16 mi
4:00 PM85 °FScattered clouds.7 mph49%29.95 "Hg14 mi
3:00 PM85 °FPassing clouds.7 mph52%29.96 "Hg12 mi
2:00 PM83 °FPassing clouds.6 mph55%29.98 "Hg10 mi
1:00 PM82 °FPassing clouds.5 mph57%30.00 "Hg13 mi
12:00 PM81 °FPassing clouds.5 mph60%30.02 "Hg12 mi
11:00 AM79 °FPassing clouds.6 mph64%30.02 "Hg14 mi
Weather by CustomWeather, © 2016

See weather overviewHow to use our weather pages